Watertown, NY

9:00 PM EST on January 23, 2018 (GMT -0500)
Watertown International

Weather History for KART - March, 2013

Change the Weather History Date:

Friday, March 8, 2013

  Actual Average Record
Temperature  
Mean Temperature 31 °F 27 °F  
Max Temperature 41 °F 37 °F 63 °F (2002)
Min Temperature 20 °F 17 °F -18 °F (1999)
Degree Days  
Heating Degree Days 34 38  
Month to date heating degree days 293 313  
Since 1 July heating degree days 5143 5754  
Cooling Degree Days 0 0  
Month to date cooling degree days 0 0  
Year to date cooling degree days 0 0  
Moisture  
Dew Point 22 °F    
Average Humidity 70    
Maximum Humidity 92    
Minimum Humidity 48    
Precipitation  
Precipitation T in 0.07 in 1.03 in (1956)
Month to date precipitation 0.03 0.60  
Year to date precipitation 4.33 5.48  
Sea Level Pressure  
Sea Level Pressure 30.34 in    
Wind  
Wind Speed 7 mph (North)    
Max Wind Speed 18 mph    
Max Gust Speed 23 mph    
Visibility 10 miles    
Events      
T = Trace of Precipitation, MM = Missing Value Source: NWS Daily Summary

Daily Weather History Graph

Daily Weather History Graph

Search for Another Location

Airport or City:

Trip Planner

Search our weather history database for the weather conditions in past years. The results will help you decide how hot, cold, wet, or windy it might be!

Date:

Astronomy

Mar. 08, 2013 Rise Set
Actual Time 6:28 AM EST 6:01 PM EST
Civil Twilight 5:59 AM EST 6:30 PM EST
Nautical Twilight 5:26 AM EST 7:04 PM EST
Astronomical Twilight 4:52 AM EST 7:37 PM EST
Moon 4:17 AM EST (3/8) 2:49 PM EST (3/8)
Length of Visible Light 12h 30m
Length of Day
11h 33m
Waning Crescent, 12% of the Moon is Illuminated
Mar 8
Waning Crescent
Mar 11
New
Mar 19
First Quarter
Mar 27
Full
Apr 3
Last Quarter

Hourly Weather History & Observations

Time (EST) Temp. Windchill Dew Point Humidity Pressure Visibility Wind Dir Wind Speed Gust Speed Precip Events Conditions
12:56 AM 28.0 °F 20.0 °F 25.0 °F 88% 30.26 in 9.0 mi North 8.1 mph - 0.00 in   Overcast
1:56 AM 28.0 °F 21.7 °F 25.0 °F 88% 30.27 in 10.0 mi NNW 5.8 mph - N/A   Overcast
2:56 AM 28.9 °F 22.8 °F 23.0 °F 78% 30.26 in 10.0 mi North 5.8 mph - 0.00 in   Overcast
3:56 AM 30.0 °F 26.5 °F 23.0 °F 75% 30.27 in 10.0 mi North 3.5 mph - N/A   Overcast
4:56 AM 28.9 °F 25.2 °F 23.0 °F 78% 30.28 in 10.0 mi North 3.5 mph - N/A   Overcast
5:56 AM 28.9 °F 25.2 °F 23.0 °F 78% 30.29 in 10.0 mi NNW 3.5 mph - N/A   Overcast
6:56 AM 27.0 °F 23.0 °F 21.9 °F 81% 30.31 in 10.0 mi North 3.5 mph - N/A   Mostly Cloudy
7:56 AM 30.0 °F 22.4 °F 23.0 °F 75% 30.32 in 10.0 mi North 8.1 mph - N/A   Overcast
8:56 AM 30.9 °F 22.2 °F 21.9 °F 69% 30.34 in 10.0 mi North 10.4 mph - N/A   Clear
9:56 AM 34.0 °F 23.8 °F 23.0 °F 64% 30.35 in 10.0 mi NNE 16.1 mph - N/A   Clear
10:56 AM 36.0 °F 27.1 °F 23.0 °F 59% 30.35 in 10.0 mi North 13.8 mph - N/A   Partly Cloudy
11:56 AM 36.0 °F 26.7 °F 23.0 °F 59% 30.35 in 10.0 mi North 15.0 mph 23.0 mph N/A   Clear
12:56 PM 37.9 °F 30.5 °F 23.0 °F 55% 30.34 in 10.0 mi NNE 11.5 mph - N/A   Clear
1:56 PM 39.0 °F 31.8 °F 23.0 °F 53% 30.33 in 10.0 mi North 11.5 mph - N/A   Clear
2:56 PM 39.9 °F 32.5 °F 23.0 °F 51% 30.33 in 10.0 mi NNW 12.7 mph - N/A   Clear
3:56 PM 39.9 °F 33.4 °F 23.0 °F 51% 30.33 in 10.0 mi North 10.4 mph - N/A   Clear
4:56 PM 39.9 °F 33.9 °F 21.9 °F 49% 30.35 in 10.0 mi NNE 9.2 mph - N/A   Clear
5:56 PM 37.9 °F 35.5 °F 21.9 °F 53% 30.37 in 10.0 mi North 3.5 mph - N/A   Clear
6:56 PM 30.9 °F - 21.9 °F 69% 30.39 in 10.0 mi Calm Calm - N/A   Clear
7:56 PM 26.1 °F 21.9 °F 21.9 °F 84% 30.39 in 10.0 mi East 3.5 mph - N/A   Clear
8:56 PM 25.0 °F 20.7 °F 21.9 °F 88% 30.39 in 10.0 mi ESE 3.5 mph - N/A   Clear
9:56 PM 23.0 °F - 19.9 °F 88% 30.40 in 10.0 mi Calm Calm - N/A   Clear
10:56 PM 21.0 °F - 19.0 °F 92% 30.39 in 10.0 mi Calm Calm - N/A   Clear
11:56 PM 21.0 °F - 18.0 °F 88% 30.38 in 10.0 mi Calm Calm - N/A   Clear